TimeCST,TemperatureF,Dew PointF,Humidity,Sea Level PressureIn,VisibilityMPH,Wind Direction,Wind SpeedMPH,Gust SpeedMPH,PrecipitationIn,Events,Conditions,WindDirDegrees,DateUTC
12:56 AM,37.0,30.9,79,30.34,10.0,NNE,3.5,-,N/A,,Clear,30,2013-01-19 06:56:00
1:56 AM,37.0,32.0,82,30.35,10.0,North,5.8,-,N/A,,Clear,350,2013-01-19 07:56:00
2:56 AM,36.0,30.0,79,30.35,10.0,North,5.8,-,N/A,,Clear,10,2013-01-19 08:56:00
3:56 AM,37.9,30.0,73,30.34,10.0,NNE,4.6,-,N/A,,Clear,20,2013-01-19 09:56:00
4:56 AM,37.0,28.9,73,30.34,10.0,NNE,3.5,-,N/A,,Clear,20,2013-01-19 10:56:00
5:56 AM,37.0,28.9,73,30.34,10.0,NNE,4.6,-,N/A,,Clear,30,2013-01-19 11:56:00
6:56 AM,37.0,28.9,73,30.36,10.0,NNE,3.5,-,N/A,,Clear,20,2013-01-19 12:56:00
7:56 AM,42.1,30.9,65,30.38,10.0,NE,3.5,-,N/A,,Clear,50,2013-01-19 13:56:00
8:56 AM,48.9,32.0,52,30.38,10.0,ENE,8.1,-,N/A,,Clear,70,2013-01-19 14:56:00
9:56 AM,55.9,32.0,40,30.38,10.0,ENE,6.9,-,N/A,,Clear,70,2013-01-19 15:56:00
10:56 AM,61.0,36.0,39,30.34,10.0,ENE,8.1,-,N/A,,Clear,70,2013-01-19 16:56:00
11:56 AM,62.1,39.0,43,30.29,10.0,ENE,4.6,-,N/A,,Mostly Cloudy,60,2013-01-19 17:56:00
12:56 PM,64.0,39.9,41,30.27,10.0,ENE,4.6,-,N/A,,Mostly Cloudy,70,2013-01-19 18:56:00
1:56 PM,64.9,39.9,40,30.24,10.0,Calm,Calm,-,0.00,,Overcast,0,2013-01-19 19:56:00
2:56 PM,64.0,41.0,43,30.22,10.0,NE,3.5,-,N/A,,Overcast,40,2013-01-19 20:56:00
3:56 PM,63.0,39.9,43,30.22,10.0,ENE,3.5,-,N/A,,Clear,60,2013-01-19 21:56:00
4:56 PM,59.0,46.0,62,30.23,10.0,Calm,Calm,-,N/A,,Clear,0,2013-01-19 22:56:00
5:56 PM,53.1,44.1,71,30.23,10.0,Calm,Calm,-,N/A,,Clear,0,2013-01-19 23:56:00
6:56 PM,52.0,43.0,71,30.24,10.0,East,3.5,-,N/A,,Mostly Cloudy,100,2013-01-20 00:56:00
7:56 PM,50.0,44.1,80,30.25,10.0,Calm,Calm,-,0.00,,Mostly Cloudy,0,2013-01-20 01:56:00
8:56 PM,46.0,41.0,83,30.24,10.0,Calm,Calm,-,N/A,,Clear,0,2013-01-20 02:56:00
9:56 PM,45.0,39.9,82,30.22,10.0,Calm,Calm,-,0.00,,Clear,0,2013-01-20 03:56:00
10:56 PM,43.0,39.0,86,30.22,10.0,Calm,Calm,-,N/A,,Clear,0,2013-01-20 04:56:00
11:56 PM,43.0,39.0,86,30.22,10.0,Calm,Calm,-,0.00,,Clear,0,2013-01-20 05:56:00